Location: Unspecified
(0.0000°N, 0.0000°E)
Time: 13:59:31
(UTC+00:00)

Vanguard 1 Rocket - Pass Details

Date: 23 March 2018
Orbit: 649 x 4227 km, 34.3° (Epoch: 15 November)

Event Time Altitude Azimuth Distance (km) Brightness Sun altitude
Rises 03:15:36 0° 267° (W) 8,090 - -42.8°
Reaches altitude 10° 03:22:48 10° 256° (WSW) 7,327 - -41.0°
Exits shadow 03:37:55 26° 221° (SW) 6,083 11.2 -37.2°
Maximum altitude 03:42:54 27° 206° (SSW) 5,844 11.2 -35.9°
Drops below altitude 10° 03:59:52 10° 153° (SSE) 6,111 11.8 -31.7°
Sets 04:05:15 0° 141° (SE) 6,603 12.3 -30.4°
